Regional Weather Roundup
Issued by NWS

Home | Current Version | Previous Version | Graphics & Text | Print | Product List | Glossary On
Versions: 1 2 3 4 5 6 7 8 9 10 11 12 13 14 15 16 17 18 19 20 21 22 23 24 25 26 27 28 29 30 31 32 33 34 35 36 37 38 39 40 41 42 43 44 45 46 47 48 49 50
000
ASUS45 KPSR 061710
RWRAZ

ARIZONA HOURLY REGIONAL WEATHER ROUNDUP
NATIONAL WEATHER SERVICE PHOENIX AZ
1000 AM MST MON JUL 06 2015

NOTE: FAIR INDICATES FEW OR NO CLOUDS BELOW 12,000 FEET WITH NO
SIGNIFICANT WEATHER AND/OR OBSTRUCTIONS TO VISIBILITY.

AZZ001>003-036-061800-
NORTHWEST ARIZONA

CITY           SKY/WX    TMP DP  RH WIND       PRES   REMARKS
BULLHEAD CITY  MOSUNNY   91  61  35 SW7       29.96S
KINGMAN        PTSUNNY   85  55  35 SW14      30.12F
$$

AZZ004>008-015-016-018-061800-
NORTH CENTRAL ARIZONA

CITY           SKY/WX    TMP DP  RH WIND       PRES   REMARKS
GRAND CANYON   CLOUDY    69  51  52 W8        30.33R
WILLIAMS       CLOUDY    70  50  49 NW6       30.40S
PRESCOTT       SUNNY     76  56  49 N5        30.24S
FLAGSTAFF      PTSUNNY   70  48  45 W8        30.35S
PAYSON         MOSUNNY   79  52  38 W10       30.24S
PAGE           CLOUDY    82  51  34 W6G18     30.14S
$$

AZZ009>014-017-061800-
NORTHEAST ARIZONA

CITY           SKY/WX    TMP DP  RH WIND       PRES   REMARKS
WINSLOW        SUNNY     81  53  37 NW7       30.20S
SAINT JOHNS    MOSUNNY   79  49  34 W13G22    30.24S
WINDOW ROCK    SUNNY     76  53  44 W13       30.29R
SHOW LOW       MOSUNNY   70  52  52 NW6       30.31S
$$

AZZ023-061800-
GREATER PHOENIX AREA

CITY           SKY/WX    TMP DP  RH WIND       PRES   REMARKS
PHOENIX        MOSUNNY   87  66  49 W3        29.97S
BUCKEYE        SUNNY     88  66  48 CALM      29.98F
GLENDALE       MOSUNNY   88  66  48 CALM      30.00R
LUKE AFB       SUNNY     90  64  43 NE3       29.98R
DEER VALLEY    SUNNY     87  63  44 CALM      29.99S
SCOTTSDALE     SUNNY     87  64  46 CALM      30.01S
MESA-FALCON    PTSUNNY   88  64  45 SW6       29.98
MESA-GATEWAY   MOSUNNY   88  66  48 SE7       30.01F
CHANDLER       MOSUNNY   90  64  43 VRB5      29.99S
$$

AZZ027-028-061800-
SOUTHWEST MARICOPA COUNTY AND PINAL COUNTY

CITY           SKY/WX    TMP DP  RH WIND       PRES   REMARKS
CASA GRANDE    SUNNY     86  68  54 CALM      29.99S
GILA BEND      SUNNY     96  61  31 VRB2      29.94F
$$

AZZ503-504-507>509-061800-
SOUTHEAST ARIZONA

CITY           SKY/WX    TMP DP  RH WIND       PRES   REMARKS
TUCSON         SUNNY     88  62  41 N7        30.09F
DAVIS-MONTHAN  SUNNY     83  65  53 W5        30.08F
RYAN FIELD     SUNNY     88  66  48 NW8       30.08F
NOGALES        SUNNY     83  62  49 SW8       30.17S
SIERRA VISTA   SUNNY     80  59  48 VRB6      30.22S
DOUGLAS        MOSUNNY   81  61  50 MISG      30.17S
SAFFORD        SUNNY     85  62  46 W15       30.07S
$$

AZZ020-021-025-026-031-061800-
SOUTHWEST ARIZONA

CITY           SKY/WX    TMP DP  RH WIND       PRES   REMARKS
YUMA           MOSUNNY   95  62  33 S14       29.91R
$$

CAZ031-033-041-043-047-048-061-061800-
SOUTHERN CALIFORNIA

CITY           SKY/WX    TMP DP  RH WIND       PRES   REMARKS
DOWNTOWN L.A.  CLOUDY    66  60  81 CALM      30.06R
L.A. AIRPORT   CLOUDY    64  60  87 SW5       30.07S
SAN DIEGO      CLOUDY    66  61  82 NW6       30.07S
BURBANK        CLOUDY    66  58  75 S6        30.06R
ONTARIO        CLOUDY    69  58  67 S3        30.06R HAZE
RIVERSIDE      CLOUDY    68  59  73 CALM      30.06S
PALM SPRINGS   SUNNY     93  55  27 E7        29.95S
EL CENTRO NAS  MOSUNNY   91  67  44 VRB6      29.90F
IMPERIAL       SUNNY     91  69  48 SW7       29.88F
BLYTHE         SUNNY     96  56  26 VRB7      29.92F
NEEDLES        SUNNY     94  58  29 E8        29.96S
$$

NVZ020-UTZ003-061800-
SOUTHERN NEVADA-UTAH

CITY           SKY/WX    TMP DP  RH WIND       PRES   REMARKS
LAS VEGAS      CLOUDY    87  56  34 SW3       29.99R
SALT LAKE CITY MOSUNNY   84  58  40 NW7       30.11S
$$

NMZ009-TXZ055-061800-
NEW MEXICO-WEST TEXAS

CITY           SKY/WX    TMP DP  RH WIND       PRES   REMARKS
ALBUQUERQUE    MOSUNNY   79  54  41 W8        30.18S
EL PASO        MOSUNNY   85  58  39 SW8       30.09R
$$


........................KEY........................
SKY/WX - SKY CONDITION/WEATHER
TMP    - TEMPERATURE IN FAHRENHEIT
DP     - DEW POINT IN FAHRENHEIT
RH     - RELATIVE HUMIDITY IN PERCENT
WIND   - DIRECTION AND SPEED IN MILES PER HOUR (MPH)
VRB    - VARIABLE WIND DIRECTION
PRES   - MEAN SEA LEVEL PRESSURE IN INCHES OF MERCURY
         F - FALLING PRESSURE   R - RISING PRESSURE
         S - STEADY PRESSURE
VSB    - VISIBILITY IN MILES
HX     - HEAT INDEX IN FAHRENHEIT
WCI    - WIND CHILL INDEX IN FAHRENHEIT
TC     - TEMPERATURE IN CELSIUS WHICH IS ALSO KNOWN AS
         TEMPERATURE IN CENTIGRADE
AFB    - AIR FORCE BASE
         LUKE AFB IS LUKE AIR FORCE BASE
         DAVIS-MONTHAN IS DAVIS-MONTHAN AIR FORCE BASE
NAS    - NAVAL AIR STATION
         EL CENTRO NAS IS EL CENTRO NAVAL AIR STATION
N/A    - NOT AVAILABLE



USA.gov is the U.S. government's official web portal to all federal, state and local government web resources and services.